Tracking 19283 objects as of 17-Nov-2018
HD Live streaming from Space Station
objects crossing your sky now

ESSA 4 (TOS-B)

Track ESSA 4 (TOS-B) now!
10-day predictions
ESSA 4 (TOS-B) is classified as:


NORAD ID: 2657
Int'l Code: 1967-006A
Perigee: 1,333.0 km
Apogee: 1,446.4 km
Inclination: 102.0 °
Period: 113.4 minutes
Semi major axis: 7760 km
RCS: 0.8222 m2 (medium)
Launch date: January 26, 1967
Source: United States (US)
Launch site: AIR FORCE WESTERN TEST RANGE (AFWTR)
aabbcc
Your satellite tracking list
Your tracking list is empty




NASA's NSSDC Master Catalog

Two Line Element Set (TLE):
1  2657U 67006A   18320.97736501 -.00000060 +00000-0 -51854-4 0  9996
2  2657 102.0394 002.0620 0073083 323.9576 099.0387 12.69844220401040
Source of the keplerian elements: AFSPC